Historique des stations

Station météo de Reugny

Altitude de la station : 96 m







Données météorologiques pour le 18/08/2022
Date
Heure
Températures Humidité Point de rosée Vitesse
du vent
Direction Rafales Windchill Pression Pluviométrie
Cumul
Date
Heure
Températures Humidité Point de rosée Vitesse
du vent
Direction Rafales Windchill Pression Pluviométrie
Cumul
18/08/2022 23:4820.7 °C0 %-130.0 °C-NNO8 km/h20.6 1017 hPa-
18/08/2022 23:4520.8 °C0 %-130.0 °C-NO21 km/h20.6 1017 hPa-
18/08/2022 23:3321.0 °C0 %-130.0 °C-NO10 km/h21.1 1017 hPa-
18/08/2022 23:3021.1 °C0 %-130.0 °C-NO21 km/h21.1 1017 hPa-
18/08/2022 23:1921.2 °C0 %-130.0 °C-NO8 km/h21.1 1017 hPa-
18/08/2022 23:1521.2 °C0 %-130.0 °C-NO21 km/h21.1 1017 hPa-
18/08/2022 23:0321.4 °C0 %-130.0 °C-OSO11 km/h21.7 1017 hPa-
18/08/2022 23:0021.4 °C0 %-130.0 °C-ONO21 km/h21.7 1017 hPa-
18/08/2022 22:4921.6 °C6 %-17.8 °C-ONO13 km/h21.7 1017 hPa-
18/08/2022 22:4621.6 °C8 %-13.9 °C-ONO21 km/h21.7 1017 hPa-
18/08/2022 22:3321.7 °C20 %-2.2 °C-NO10 km/h21.7 1017 hPa-
18/08/2022 22:3021.8 °C22 %-1.1 °C-ONO21 km/h21.7 1017 hPa-
18/08/2022 22:1822.0 °C31 %3.9 °C-ONO10 km/h22.2 1017 hPa-
18/08/2022 22:1522.1 °C33 %5.0 °C-ONO21 km/h22.2 1016 hPa-
18/08/2022 22:0322.2 °C40 %7.8 °C-O13 km/h22.2 1016 hPa-
18/08/2022 22:0022.3 °C41 %8.3 °C-O21 km/h22.2 1016 hPa-
18/08/2022 21:4822.4 °C47 %10.6 °C-OSO10 km/h22.2 1016 hPa-
18/08/2022 21:4522.6 °C48 %11.1 °C-NO21 km/h22.8 1016 hPa-
18/08/2022 21:3422.9 °C50 %11.7 °C---22.8 1016 hPa-
18/08/2022 21:3123.1 °C50 %12.2 °C-NO21 km/h23.3 1016 hPa-
18/08/2022 21:1823.5 °C50 %12.2 °C---23.3 1016 hPa-
18/08/2022 21:1523.7 °C50 %12.8 °C-NO21 km/h23.9 1016 hPa-
18/08/2022 21:0324.2 °C50 %12.8 °C---24.4 1016 hPa-
18/08/2022 21:0024.3 °C50 %13.3 °C-NO21 km/h24.4 1016 hPa-
18/08/2022 20:4824.8 °C50 %13.9 °C-NO6 km/h25.0 1016 hPa-
18/08/2022 20:4524.8 °C50 %13.9 °C-NNO21 km/h25.0 1015 hPa-
18/08/2022 20:3425.3 °C49 %13.9 °C---25.6 1015 hPa-
18/08/2022 20:3125.3 °C49 %13.9 °C-NO21 km/h25.6 1015 hPa-
18/08/2022 20:1925.7 °C47 %13.3 °C5 km/hNO8 km/h25.6 1015 hPa-
18/08/2022 20:1625.8 °C47 %13.3 °C-NO21 km/h25.6 1015 hPa-
18/08/2022 20:0326.1 °C47 %13.9 °C-O8 km/h26.1 1015 hPa-
18/08/2022 20:0026.2 °C47 %13.9 °C-O21 km/h26.1 1015 hPa-
18/08/2022 19:4826.2 °C47 %13.9 °C-O10 km/h26.1 1015 hPa-
18/08/2022 19:4526.3 °C46 %13.9 °C3 km/hOSO21 km/h26.1 1015 hPa-
18/08/2022 19:3426.7 °C45 %13.9 °C2 km/hNO13 km/h26.7 1015 hPa-
18/08/2022 19:3026.8 °C45 %13.9 °C6 km/hOSO21 km/h26.7 1015 hPa-
18/08/2022 19:1926.8 °C45 %13.9 °C-O11 km/h26.7 1015 hPa-
18/08/2022 19:1526.9 °C45 %13.9 °C2 km/hOSO21 km/h26.7 1015 hPa-
18/08/2022 19:0427.0 °C46 %14.4 °C5 km/hOSO14 km/h27.2 1015 hPa-
18/08/2022 19:0027.2 °C44 %13.9 °C2 km/hOSO21 km/h27.2 1015 hPa-
18/08/2022 18:4927.2 °C45 %14.4 °C-OSO11 km/h27.2 1015 hPa-
18/08/2022 18:4527.1 °C46 %14.4 °C2 km/hO21 km/h27.2 1015 hPa-
18/08/2022 18:3426.8 °C45 %13.9 °C-O11 km/h26.7 1015 hPa-
18/08/2022 18:3027.2 °C43 %13.3 °C6 km/hO21 km/h27.2 1015 hPa-
18/08/2022 18:1927.2 °C42 %13.3 °C-O16 km/h27.2 1015 hPa-
18/08/2022 18:1627.2 °C44 %13.9 °C2 km/hO21 km/h27.2 1015 hPa-
18/08/2022 18:0527.7 °C42 %13.9 °C5 km/hOSO21 km/h27.8 1015 hPa-
18/08/2022 18:0127.7 °C42 %13.3 °C10 km/hOSO21 km/h27.8 1015 hPa-
18/08/2022 17:5027.7 °C42 %13.9 °C10 km/hONO18 km/h27.8 1015 hPa-
18/08/2022 17:4627.8 °C41 %13.3 °C2 km/hO21 km/h27.8 1015 hPa-
18/08/2022 17:3427.6 °C41 %13.3 °C-O18 km/h27.8 1015 hPa-
18/08/2022 17:3027.6 °C42 %13.3 °C5 km/hO21 km/h27.8 1015 hPa-
18/08/2022 17:2027.1 °C44 %13.9 °C6 km/hOSO21 km/h27.2 1015 hPa-
18/08/2022 17:1527.3 °C43 %13.3 °C16 km/hSO21 km/h26.1 1015 hPa-
18/08/2022 17:0527.8 °C43 %13.9 °C-O16 km/h27.8 1015 hPa-
18/08/2022 17:0028.1 °C41 %13.3 °C11 km/hSO19 km/h28.3 1015 hPa-
18/08/2022 16:5027.8 °C44 %14.4 °C2 km/hOSO13 km/h27.8 1015 hPa-
18/08/2022 16:4527.6 °C43 %13.9 °C10 km/hOSO19 km/h27.8 1015 hPa-
18/08/2022 16:3527.6 °C44 %14.4 °C5 km/hOSO11 km/h27.8 1015 hPa-
18/08/2022 16:3027.4 °C45 %14.4 °C2 km/hOSO19 km/h27.2 1015 hPa-
18/08/2022 16:2027.6 °C45 %14.4 °C6 km/hOSO19 km/h27.8 1015 hPa-
18/08/2022 16:1527.2 °C46 %14.4 °C-ONO16 km/h27.2 1015 hPa-
18/08/2022 16:0526.3 °C48 %14.4 °C5 km/hONO11 km/h26.1 1015 hPa-
18/08/2022 16:0125.9 °C48 %13.9 °C8 km/hOSO16 km/h26.1 1015 hPa-
18/08/2022 15:5126.5 °C48 %14.4 °C3 km/hO11 km/h26.7 1015 hPa-
18/08/2022 15:4627.3 °C46 %14.4 °C6 km/hOSO16 km/h27.2 1015 hPa-
18/08/2022 15:3627.5 °C45 %14.4 °C5 km/hNNO14 km/h27.8 1015 hPa-
18/08/2022 15:3027.3 °C47 %15.0 °C8 km/hNNO16 km/h27.2 1015 hPa-
18/08/2022 15:2026.7 °C47 %14.4 °C2 km/hSO11 km/h26.7 1015 hPa-
18/08/2022 15:1526.8 °C47 %14.4 °C2 km/hOSO16 km/h26.7 1015 hPa-
18/08/2022 15:0526.8 °C47 %14.4 °C10 km/hOSO10 km/h26.7 1015 hPa-
18/08/2022 15:0026.7 °C46 %13.9 °C2 km/hS16 km/h26.7 1015 hPa-
18/08/2022 14:5026.3 °C47 %13.9 °C-N10 km/h26.1 1015 hPa-
18/08/2022 14:4626.2 °C48 %14.4 °C2 km/hONO16 km/h26.1 1015 hPa-
18/08/2022 14:3625.7 °C47 %13.3 °C8 km/hNO8 km/h25.6 1015 hPa-
18/08/2022 14:3025.5 °C48 %13.9 °C-OSO16 km/h25.6 1015 hPa-
18/08/2022 14:1925.7 °C48 %13.9 °C2 km/hO13 km/h25.6 1015 hPa-
18/08/2022 14:1525.8 °C48 %13.9 °C-NO16 km/h26.1 1015 hPa-
18/08/2022 14:0425.4 °C47 %13.3 °C3 km/hOSO14 km/h25.6 1015 hPa-
18/08/2022 14:0025.2 °C47 %12.8 °C3 km/hOSO16 km/h25.0 1015 hPa-
18/08/2022 13:5025.1 °C46 %12.8 °C5 km/hONO14 km/h25.0 1015 hPa-
18/08/2022 13:4524.7 °C48 %12.8 °C5 km/hOSO16 km/h24.4 1015 hPa-
18/08/2022 13:3525.1 °C48 %13.3 °C-O11 km/h25.0 1015 hPa-
18/08/2022 13:3025.5 °C47 %13.3 °C6 km/hNO16 km/h25.6 1015 hPa-
18/08/2022 13:2025.8 °C47 %13.3 °C5 km/hNNO10 km/h25.6 1015 hPa-
18/08/2022 13:1525.6 °C47 %13.3 °C3 km/hSO16 km/h25.6 1015 hPa-
18/08/2022 13:0524.7 °C46 %12.2 °C-SSO10 km/h25.0 1015 hPa-
18/08/2022 13:0024.8 °C45 %12.2 °C6 km/hSO16 km/h25.0 1015 hPa-
18/08/2022 12:5024.6 °C44 %11.7 °C-O11 km/h24.4 1015 hPa-
18/08/2022 12:4524.5 °C44 %11.7 °C2 km/hONO16 km/h24.4 1015 hPa-
18/08/2022 12:3624.1 °C41 %10.0 °C-NO14 km/h23.9 1015 hPa-
18/08/2022 12:3024.3 °C38 %8.9 °C-NNO16 km/h24.4 1015 hPa-
18/08/2022 12:2124.1 °C39 %9.4 °C2 km/hO10 km/h23.9 1015 hPa-
18/08/2022 12:1623.8 °C36 %7.8 °C-N16 km/h23.9 1016 hPa-
18/08/2022 12:0623.6 °C34 %6.7 °C-O8 km/h23.9 1015 hPa-
18/08/2022 12:0123.3 °C31 %5.0 °C5 km/hO16 km/h23.3 1016 hPa-
18/08/2022 11:5023.1 °C30 %4.4 °C6 km/hO6 km/h23.3 1016 hPa-
18/08/2022 11:4522.9 °C29 %3.9 °C-OSO16 km/h22.8 1016 hPa-
18/08/2022 11:3522.7 °C5 %-18.9 °C-OSO6 km/h22.8 1016 hPa-
18/08/2022 11:3022.4 °C5 %-19.4 °C2 km/hNO16 km/h22.2 1016 hPa-
18/08/2022 11:2022.1 °C0 %-130.0 °C6 km/hOSO13 km/h22.2 1016 hPa-
18/08/2022 11:1521.9 °C0 %-130.0 °C-OSO16 km/h22.2 1016 hPa-
18/08/2022 11:0521.5 °C0 %-130.0 °C6 km/hSO16 km/h21.7 1016 hPa-
18/08/2022 11:0021.4 °C0 %-130.0 °C10 km/hSO16 km/h21.7 1015 hPa-
18/08/2022 10:5020.8 °C0 %-130.0 °C8 km/hSSO13 km/h21.1 1015 hPa-
18/08/2022 10:4520.7 °C0 %-130.0 °C6 km/hOSO11 km/h20.6 1015 hPa-
18/08/2022 10:3520.1 °C0 %-130.0 °C-OSO11 km/h20.0 1015 hPa-
18/08/2022 10:3020.1 °C0 %-130.0 °C6 km/hOSO11 km/h20.0 1015 hPa-
18/08/2022 10:2019.8 °C0 %-130.0 °C6 km/hOSO11 km/h20.0 1015 hPa-
18/08/2022 10:1519.7 °C0 %-130.0 °C2 km/hSO10 km/h19.4 1015 hPa-
18/08/2022 10:0919.3 °C0 %-130.0 °C---19.4 1015 hPa-
18/08/2022 10:0118.8 °C0 %-130.0 °C-OSO10 km/h18.9 1015 hPa-
18/08/2022 09:5018.1 °C0 %-130.0 °C-OSO6 km/h18.3 1015 hPa-
18/08/2022 09:4617.8 °C0 %-130.0 °C-OSO10 km/h17.8 1015 hPa-
18/08/2022 09:3517.2 °C0 %-130.0 °C-OSO10 km/h17.2 1015 hPa-
18/08/2022 09:3117.0 °C0 %-130.0 °C-OSO10 km/h17.2 1015 hPa-
18/08/2022 09:2016.4 °C0 %-130.0 °C---16.7 1015 hPa-
18/08/2022 09:1616.3 °C0 %-130.0 °C-O8 km/h16.1 1015 hPa-
18/08/2022 09:0415.7 °C0 %-130.0 °C---15.6 1015 hPa-
18/08/2022 09:0015.6 °C0 %-130.0 °C-O8 km/h15.6 1015 hPa-
18/08/2022 08:4915.3 °C0 %-130.0 °C---15.6 1015 hPa-
18/08/2022 08:4515.1 °C0 %-130.0 °C-O8 km/h15.0 1015 hPa-
18/08/2022 08:3514.9 °C0 %-130.0 °C---15.0 1015 hPa-
18/08/2022 08:3014.7 °C0 %-130.0 °C-O8 km/h14.4 1015 hPa-
18/08/2022 08:1914.2 °C0 %-130.0 °C---14.4 1015 hPa-
18/08/2022 08:1514.2 °C0 %-130.0 °C-O8 km/h14.4 1015 hPa-
18/08/2022 08:0413.9 °C0 %-130.0 °C---13.9 1015 hPa-
18/08/2022 08:0013.8 °C0 %-130.0 °C-OSO8 km/h13.9 1015 hPa-
18/08/2022 07:4913.7 °C0 %-130.0 °C-O6 km/h13.9 1015 hPa-
18/08/2022 07:4513.7 °C0 %-130.0 °C-O6 km/h13.9 1015 hPa-
18/08/2022 07:3412.8 °C0 %-130.0 °C---12.8 1015 hPa-
18/08/2022 07:3012.7 °C0 %-130.0 °C-O3 km/h12.8 1015 hPa-
18/08/2022 07:1912.7 °C0 %-130.0 °C---12.8 1015 hPa-
18/08/2022 07:1612.8 °C0 %-130.0 °C-O3 km/h12.8 1015 hPa-
18/08/2022 07:0413.1 °C0 %-130.0 °C---13.3 1014 hPa-
18/08/2022 07:0113.1 °C0 %-130.0 °C-O3 km/h13.3 1014 hPa-
18/08/2022 06:4913.1 °C0 %-130.0 °C-O3 km/h13.3 1014 hPa-
18/08/2022 06:4612.9 °C0 %-130.0 °C-O2 km/h12.8 1014 hPa-
18/08/2022 06:3412.2 °C0 %-130.0 °C---12.2 1014 hPa-
18/08/2022 06:3012.4 °C0 %-130.0 °C---12.2 1014 hPa-
18/08/2022 06:1812.8 °C0 %-130.0 °C---12.8 1014 hPa-
18/08/2022 06:1512.8 °C0 %-130.0 °C-O27 km/h12.8 1014 hPa4 mm
18/08/2022 06:0312.7 °C0 %-130.0 °C---12.8 1014 hPa4 mm
18/08/2022 06:0012.8 °C0 %-130.0 °C-O27 km/h12.8 1014 hPa4 mm
18/08/2022 05:4912.8 °C0 %-130.0 °C---12.8 1014 hPa4 mm
18/08/2022 05:4512.8 °C0 %-130.0 °C-O27 km/h12.8 1014 hPa4 mm
18/08/2022 05:3413.0 °C0 %-130.0 °C---12.8 1014 hPa4 mm
18/08/2022 05:3013.1 °C0 %-130.0 °C-O27 km/h13.3 1014 hPa4 mm
18/08/2022 05:1912.9 °C0 %-130.0 °C---12.8 1014 hPa4 mm
18/08/2022 05:1612.9 °C0 %-130.0 °C-O27 km/h12.8 1014 hPa4 mm
18/08/2022 05:0413.0 °C0 %-130.0 °C---12.8 1014 hPa4 mm
18/08/2022 05:0113.0 °C0 %-130.0 °C-O27 km/h12.8 1014 hPa4 mm
18/08/2022 04:4913.2 °C0 %-130.0 °C---13.3 1014 hPa4 mm
18/08/2022 04:4513.2 °C0 %-130.0 °C-O27 km/h13.3 1014 hPa4 mm
18/08/2022 04:3313.6 °C0 %-130.0 °C---13.3 1014 hPa4 mm
18/08/2022 04:3013.6 °C0 %-130.0 °C-O27 km/h13.9 1014 hPa4 mm
18/08/2022 04:1813.7 °C0 %-130.0 °C---13.9 1014 hPa4 mm
18/08/2022 04:1513.7 °C0 %-130.0 °C-O27 km/h13.9 1014 hPa4 mm
18/08/2022 04:0313.7 °C0 %-130.0 °C---13.9 1014 hPa4 mm
18/08/2022 04:0013.8 °C0 %-130.0 °C-O27 km/h13.9 1014 hPa4 mm
18/08/2022 03:4914.1 °C0 %-130.0 °C---13.9 1014 hPa4 mm
18/08/2022 03:4514.0 °C0 %-130.0 °C-O27 km/h13.9 1014 hPa4 mm
18/08/2022 03:3414.2 °C0 %-130.0 °C---14.4 1014 hPa4 mm
18/08/2022 03:3014.2 °C0 %-130.0 °C-O27 km/h14.4 1014 hPa4 mm
18/08/2022 03:1914.1 °C0 %-130.0 °C---13.9 1014 hPa4 mm
18/08/2022 03:1514.1 °C0 %-130.0 °C-O27 km/h13.9 1014 hPa4 mm
18/08/2022 03:0414.2 °C0 %-130.0 °C---14.4 1014 hPa4 mm
18/08/2022 03:0114.2 °C0 %-130.0 °C-O27 km/h14.4 1014 hPa4 mm
18/08/2022 02:4814.4 °C0 %-130.0 °C---14.4 1014 hPa4 mm
18/08/2022 02:4514.4 °C0 %-130.0 °C-O27 km/h14.4 1014 hPa4 mm
18/08/2022 02:3314.6 °C0 %-130.0 °C---14.4 1014 hPa4 mm
18/08/2022 02:2914.7 °C0 %-130.0 °C-O27 km/h15.0 1014 hPa4 mm
18/08/2022 02:1915.1 °C0 %-130.0 °C---15.0 1014 hPa4 mm
18/08/2022 02:1515.3 °C0 %-130.0 °C-O27 km/h15.6 1014 hPa4 mm
18/08/2022 02:0415.6 °C0 %-130.0 °C---15.6 1014 hPa4 mm
18/08/2022 02:0015.6 °C0 %-130.0 °C-O27 km/h15.6 1014 hPa4 mm
18/08/2022 01:4915.6 °C0 %-130.0 °C---15.6 1014 hPa4 mm
18/08/2022 01:4515.6 °C0 %-130.0 °C-O27 km/h15.6 1014 hPa4 mm
18/08/2022 01:3415.5 °C0 %-130.0 °C---15.6 1014 hPa4 mm
18/08/2022 01:3115.4 °C0 %-130.0 °C-O27 km/h15.6 1014 hPa4 mm
18/08/2022 01:1915.4 °C0 %-130.0 °C---15.6 1014 hPa4 mm
18/08/2022 01:1615.4 °C0 %-130.0 °C-O27 km/h15.6 1014 hPa4 mm
18/08/2022 01:0415.7 °C0 %-130.0 °C---15.6 1014 hPa4 mm
18/08/2022 01:0115.7 °C0 %-130.0 °C-O27 km/h15.6 1014 hPa4 mm
18/08/2022 00:4915.9 °C0 %-130.0 °C---16.1 1014 hPa4 mm
18/08/2022 00:4615.9 °C0 %-130.0 °C-O27 km/h16.1 1014 hPa4 mm
18/08/2022 00:3316.2 °C0 %-130.0 °C---16.1 1014 hPa4 mm
18/08/2022 00:3016.3 °C0 %-130.0 °C-O27 km/h16.1 1013 hPa4 mm
18/08/2022 00:1816.3 °C0 %-130.0 °C---16.1 1014 hPa4 mm
18/08/2022 00:1516.3 °C0 %-130.0 °C-O27 km/h16.1 1014 hPa4 mm
18/08/2022 00:0416.7 °C0 %-130.0 °C---16.7 1014 hPa4 mm
18/08/2022 00:0016.8 °C0 %-130.0 °C-O27 km/h16.7 1014 hPa4 mm


Minima :

Température : 12.2 °C
Humidité : 0 %
Point de rosée : -130.0 °C
Vent moyen : 2 km/h
Windchill : 12.2
Pression atm. : 1013 hPa
Maxima :

Température : 28.1 °C
Humidité : 50 %
Point de rosée : 15.0 °C
Vent moyen : 16 km/h
Windchill : 28.3
Pression atm. : 1017 hPa
Rafales max : 27 km/h
Cumul de pluie sur 24H : 4 mm

Reugny est une commune du département Indre-et-Loire (37).
La station météorologique du réseau de l'association la plus proche de Reugny est celle de Véretz



Icône Facebook Association Météo Centre Icône Twitter Association Météo Centre Icône Chaîne Youtube Association Météo Centre Icône contact Association Météo Centre Icône Insta Association Météo Centre